Abraham Lincoln Capital Airport
KSPI : now visible

Airfield :











YOU CAN JOIN US ON...

 
LOGIN :

Register | Disclaimer

   EN    FR    IT 

 









Legend :    VFR   Marginal VFR   IFR   Intensive IFR   Very Intensive IFR
Visi :
Ceiling :
>= 8 km
>= 3000ft
5 to 8 km
1000 to 3000 ft
1500m to 5 km
500 to 1000 ft
800 to 1500m
200 to 500 ft
< 800m
< 200 ft
Symbols :   Thunderstorms  Fog  Heavy snow  Heavy precipitations  Wind > 20 kt






- Airport Elevation : 598 ft
- IATA code : SPI


KSPI - Abraham Lincoln Capital

CURRENT METAR :
  • 041452Z 21007KT 10SM CLR M02/M08 A3033 RMK AO2 SLP280 T10171078 58004 $

EXPIRED METARs :
  • 041352Z 20008KT 10SM CLR M06/M09 A3035 RMK AO2 SLP286 T10561094 $
  • 041252Z 18004KT 10SM CLR M06/M11 A3034 RMK AO2 SLP283 T10611111 $

TAF KSPI
Valid from the 04 at 12:00 until the 05 at 12:00 UTC


041120Z 0412/0512 21003KT P6SM BKN250
FM041500 21010KT P6SM FEW250
FM050000 18006KT P6SM SCT250
KZKC FIR / North America



MET'MAP, your aeronautical weather chart ! - Copyright ORBIFLY December 2007 - Disclaimer

ORBIFLY MET'MAP TEAM :

Programming & Development : Alexandra Zaïnal
Original concept : Baudouin d'Aumeries
Technical & hardware support : Manuel Goepfert
Assistance : Marc-Olivier Méhu




SOURCES & CREDITS :

   NOAA       Earth
Advisory